[[{"header":{"parameterUnit":"m.s-1","parameterCategory":1,"la1":30.2991,"la2":30.254,"lo1":-89.0895,"lo2":-89.0444,"dy":0.0017,"dx":0.0017,"nx":28,"ny":28,"refTime":"2025-01-08T03:00:00:Z","depth":0,"parameterNumber":2,"parameterNumberName":"U-component_of_WINDS"},"data":[0,0,0,0,0,0,0,0,0,0,0,0,0,0,0,0,0,0,0,0,0,0,0,0,0,0,0,0,0,0,0,0,0,0,0,0,0,0,0,0,0,0,0,0,0,0,0,0,0,0,0,0,0,0,0,0,0,0,0.2577,0.2577,0,0.2567,0.2567,0.2567,0.2598,0.2599,0.26,0.2601,0.2587,0.2586,0.2585,0,0,0,0,0,0,0,0,0,0,0,0,0,0.2621,0.262,0.2577,0.2577,0.2577,0.2567,0.2567,0.2567,0.2598,0.2599,0.26,0.2602,0.2588,0.2586,0.2585,0,0,0,0,0,0,0,0,0,0,0,0,0,0.2605,0.2619,0.2577,0.2591,0.2593,0.2567,0.2567,0.2567,0.2598,0.2599,0.2601,0.2602,0.2588,0.2586,0.2585,0.2544,0,0,0.2579,0.2578,0,0,0,0,0,0,0,0,0.2606,0.2604,0.2589,0.259,0.2592,0.2586,0.2577,0.2559,0.2598,0.2596,0.2601,0.2603,0.2585,0.2584,0.2579,0.2543,0.2543,0.2579,0.2577,0.2577,0.2576,0,0,0,0,0,0,0,0.2607,0.2604,0.2573,0.2589,0.259,0.2597,0.2597,0.2574,0.2582,0.2596,0.2598,0.2597,0.2586,0.258,0.2579,0.2542,0.2579,0.2577,0.2576,0.2575,0.2474,0.2472,0,0,0,0,0,0,0.2607,0.2605,0.2573,0.2573,0.2603,0.2596,0.2595,0.2586,0.2583,0.2584,0.2596,0.2598,0.2583,0.2581,0.2578,0.253,0.2577,0.2575,0.2574,0.2475,0.2474,0.2472,0,0,0,0,0,0,0.2607,0.2604,0.2574,0.2589,0.2586,0.2593,0.2583,0.2585,0.2579,0.2583,0.2584,0.2588,0.2584,0.2581,0.2553,0.253,0.2574,0.2572,0.2477,0.2475,0.2473,0.2434,0,0,0,0,0,0,0.2609,0.2604,0.2589,0.2589,0.2585,0.2549,0.2582,0.2584,0.2576,0.258,0.2576,0.2577,0.2585,0.2555,0.2551,0.2528,0.2571,0.2479,0.2476,0.2473,0.2437,0.2431,0.2425,0,0,0,0,0,0.261,0.2577,0.2588,0.2584,0.2567,0.2547,0.2545,0.2556,0.2574,0.2559,0.2561,0.2577,0.2534,0.2552,0.2547,0.2524,0.2481,0.2477,0.2474,0.244,0.2432,0.2425,0,0,0,0,0,0,0.2572,0.2577,0.2589,0.2556,0.2551,0.2553,0.2534,0.2547,0.2536,0.254,0.2553,0.2552,0.2521,0.252,0.254,0.2485,0.251,0.2506,0.2486,0.2479,0.2473,0.2473,0.2569,0,0,0,0,0,0.2561,0.2545,0.255,0.252,0.2518,0.2526,0.2518,0.2527,0.2522,0.252,0.2521,0.2514,0.25,0.249,0.2476,0.2438,0.2437,0.242,0.2414,0.2409,0.2404,0.2384,0.2376,0.246,0.246,0.246,0,0,0.2535,0.2536,0.2525,0.2513,0.251,0.2493,0.2524,0.2505,0.2492,0.2517,0.249,0.2491,0.2485,0.2452,0.2437,0.245,0.2381,0.2404,0.24,0.2398,0.2379,0.2371,0.2364,0.2458,0.2458,0.2459,0,0,0.248,0.248,0.2455,0.2452,0.2449,0.2455,0.2449,0.2449,0.2451,0.2425,0.2443,0.2428,0.2403,0.2398,0.2392,0.2337,0.2351,0.2333,0.23,0.228,0.2273,0.2268,0.2247,0.224,0.2328,0.2328,0.2328,0,0.2448,0.2424,0.244,0.2419,0.2413,0.2437,0.2412,0.2408,0.24,0.2395,0.241,0.2379,0.2377,0.2343,0.2329,0.2324,0.2317,0.2332,0.2273,0.2268,0.2262,0.2243,0.2236,0.2326,0.2326,0.2327,0.2327,0,0.2385,0.2369,0.2349,0.2342,0.2334,0.2311,0.2322,0.2312,0.2323,0.2327,0.2301,0.2299,0.2286,0.2279,0.2289,0.2247,0.2255,0.2271,0.2297,0.2252,0.2234,0.2227,0.2323,0.2324,0.2324,0.2325,0,0,0.2303,0.2307,0.2299,0.2297,0.2296,0.2283,0.2262,0.225,0.2241,0.2235,0.2217,0.2196,0.2212,0.2205,0.2215,0.2198,0.2154,0.2216,0.2217,0.2204,0.2107,0.2093,0.2085,0.2164,0.2163,0.2162,0.2107,0,0.2248,0.2213,0.2227,0.2189,0.2174,0.2198,0.2179,0.2176,0.218,0.2167,0.2172,0.2156,0.2179,0.2175,0.2159,0.2162,0.2134,0.2167,0.2146,0.2145,0.2145,0.2075,0.2061,0.2009,0.21,0.2099,0.2098,0,0.2179,0.2172,0.2133,0.2136,0.213,0.2113,0.2104,0.2092,0.209,0.2094,0.2088,0.2101,0.208,0.2107,0.2078,0.21,0.2092,0.2093,0.2091,0.2088,0.2117,0.2069,0.1993,0.1985,0.2088,0.2089,0.2089,0,0.2122,0.2103,0.2077,0.2075,0.2077,0.2065,0.2065,0.2065,0.2057,0.205,0.2045,0.2035,0.2028,0.202,0.203,0.2049,0.1999,0.2027,0.2001,0.2,0.1987,0.1987,0.1907,0.1985,0.1985,0.1985,0.1985,0,0.2058,0.2033,0.2052,0.2036,0.2009,0.2026,0.1998,0.2001,0.2001,0.1985,0.2006,0.1991,0.2006,0.1993,0.2001,0.1975,0.1972,0.1974,0.1976,0.1971,0.1971,0.1965,0.1968,0.1983,0.1984,0.1984,0.1984,0,0.1988,0.2,0.1974,0.198,0.1981,0.196,0.1965,0.195,0.1957,0.1938,0.1934,0.1944,0.1929,0.194,0.1924,0.193,0.1896,0.1903,0.1896,0.1898,0.1871,0.1873,0.1783,0.1772,0.1858,0.1857,0.1856,0,0.1945,0.1927,0.1932,0.1924,0.1923,0.191,0.1903,0.1919,0.1911,0.1908,0.1894,0.1881,0.1872,0.1847,0.1852,0.1841,0.1848,0.1817,0.1846,0.1842,0.1846,0.1846,0.1844,0.1811,0.181,0.1809,0.1808,0,0.1868,0.1876,0.1866,0.1858,0.185,0.1844,0.184,0.1832,0.1849,0.1839,0.1825,0.1818,0.1804,0.1791,0.1782,0.1782,0.1797,0.18,0.1793,0.1786,0.1783,0.1783,0.1879,0.1801,0.1802,0.1802,0.1802,0.1803,0.181,0.1795,0.1796,0.1785,0.1784,0.178,0.1767,0.1773,0.1762,0.1752,0.1763,0.1746,0.1745,0.1735,0.1733,0.1719,0.1732,0.1722,0.1719,0.1716,0.1712,0.1787,0.1718,0.1718,0.1718,0.1719,0.1719,0,0.1733,0.1736,0.1725,0.172,0.1711,0.1729,0.1726,0.1716,0.1702,0.17,0.1691,0.1675,0.1663,0.1669,0.1658,0.1646,0.1653,0.1643,0.1643,0.1642,0.1702,0.1708,0.1637,0.1637,0.1637,0.1637,0.1637,0.1637,0.1692,0.1667,0.1675,0.1651,0.1654,0.1638,0.1635,0.1631,0.163,0.1612,0.1603,0.1607,0.1608,0.1598,0.1588,0.159,0.1584,0.1571,0.1575,0.163,0.1638,0.1646,0.1652,0.157,0.157,0.1517,0.1516,0.1516]},{"header":{"parameterUnit":"m.s-1","parameterCategory":1,"la1":30.2991,"la2":30.254,"lo1":-89.0895,"lo2":-89.0444,"dy":0.0017,"dx":0.0017,"nx":28,"ny":28,"refTime":"2025-01-08T03:00:00:Z","depth":0,"parameterNumber":3,"parameterNumberName":"V-component_of_WINDS"},"data":[0,0,0,0,0,0,0,0,0,0,0,0,0,0,0,0,0,0,0,0,0,0,0,0,0,0,0,0,0,0,0,0,0,0,0,0,0,0,0,0,0,0,0,0,0,0,0,0,0,0,0,0,0,0,0,0,0,0,-6.2082,-6.2083,0,-6.2215,-6.2217,-6.2218,-6.2129,-6.2125,-6.2121,-6.2117,-6.2248,-6.2255,-6.2263,0,0,0,0,0,0,0,0,0,0,0,0,0,-6.1744,-6.1751,-6.2082,-6.2083,-6.2085,-6.2215,-6.2217,-6.2218,-6.2129,-6.2125,-6.212,-6.2115,-6.2246,-6.2254,-6.2263,0,0,0,0,0,0,0,0,0,0,0,0,0,-6.1886,-6.1753,-6.2081,-6.2056,-6.2055,-6.2214,-6.2217,-6.2219,-6.2131,-6.2124,-6.2118,-6.2113,-6.2243,-6.2254,-6.2264,-6.2454,0,0,-6.2298,-6.2302,0,0,0,0,0,0,0,0,-6.1878,-6.1898,-6.2058,-6.2058,-6.2058,-6.2149,-6.2146,-6.2297,-6.2132,-6.2102,-6.2117,-6.211,-6.222,-6.2232,-6.227,-6.246,-6.2465,-6.2299,-6.2305,-6.231,-6.2313,0,0,0,0,0,0,0,-6.1868,-6.1892,-6.2134,-6.2061,-6.206,-6.2037,-6.205,-6.2174,-6.2193,-6.2104,-6.2098,-6.2115,-6.2218,-6.226,-6.2273,-6.2467,-6.2298,-6.2308,-6.2315,-6.2319,-6.2818,-6.2824,0,0,0,0,0,0,-6.1861,-6.1884,-6.213,-6.2138,-6.1951,-6.2048,-6.2063,-6.2126,-6.2192,-6.2196,-6.212,-6.2111,-6.2245,-6.226,-6.2277,-6.2503,-6.231,-6.232,-6.2326,-6.2811,-6.2819,-6.2826,0,0,0,0,0,0,-6.1854,-6.1884,-6.2124,-6.201,-6.2039,-6.206,-6.2132,-6.2132,-6.2173,-6.2204,-6.2206,-6.216,-6.224,-6.2262,-6.2411,-6.2506,-6.2325,-6.2335,-6.2803,-6.2813,-6.2823,-6.2956,0,0,0,0,0,0,-6.1845,-6.1882,-6.1956,-6.2012,-6.2045,-6.2258,-6.2138,-6.2139,-6.2193,-6.2182,-6.2242,-6.2246,-6.2237,-6.2395,-6.2422,-6.2518,-6.2344,-6.2795,-6.2808,-6.282,-6.2943,-6.297,-6.2992,0,0,0,0,0,-6.1833,-6.1987,-6.196,-6.199,-6.2138,-6.2264,-6.2282,-6.2271,-6.2201,-6.2274,-6.2294,-6.2244,-6.2492,-6.2411,-6.244,-6.2541,-6.2789,-6.2804,-6.2819,-6.2932,-6.2964,-6.2991,0,0,0,0,0,0,-6.1939,-6.1994,-6.1964,-6.2141,-6.2199,-6.2248,-6.234,-6.2305,-6.2382,-6.2368,-6.2349,-6.2363,-6.2519,-6.2545,-6.2454,-6.2727,-6.2629,-6.265,-6.2705,-6.2736,-6.276,-6.275,-6.2353,0,0,0,0,0,-6.1984,-6.2083,-6.2124,-6.2276,-6.2307,-6.2319,-6.2373,-6.236,-6.2418,-6.2441,-6.2471,-6.2528,-6.2618,-6.2678,-6.2763,-6.2946,-6.2957,-6.303,-6.3054,-6.3074,-6.3093,-6.3191,-6.3224,-6.2876,-6.2876,-6.2875,0,0,-6.2075,-6.2117,-6.2181,-6.2299,-6.2342,-6.2443,-6.234,-6.2452,-6.2527,-6.2457,-6.26,-6.2625,-6.2686,-6.2853,-6.2928,-6.288,-6.3192,-6.3094,-6.3109,-6.3117,-6.321,-6.3243,-6.3272,-6.2886,-6.2884,-6.2882,0,0,-6.2295,-6.2337,-6.2468,-6.2514,-6.2581,-6.2588,-6.2619,-6.2675,-6.2689,-6.2832,-6.2782,-6.287,-6.3026,-6.3072,-6.3116,-6.3353,-6.3309,-6.3381,-6.3508,-6.3604,-6.3631,-6.3655,-6.3739,-6.377,-6.34,-6.34,-6.34,0,-6.24,-6.2554,-6.254,-6.2656,-6.2709,-6.2652,-6.2784,-6.2828,-6.2919,-6.2955,-6.29,-6.3095,-6.3133,-6.3309,-6.3367,-6.3405,-6.3439,-6.3374,-6.3629,-6.3653,-6.3675,-6.3755,-6.3786,-6.3408,-6.3407,-6.3406,-6.3406,0,-6.2679,-6.2786,-6.2884,-6.2975,-6.3038,-6.3162,-6.3165,-6.3231,-6.3211,-6.3224,-6.337,-6.3413,-6.3505,-6.3546,-6.3527,-6.372,-6.3688,-6.3631,-6.3531,-6.3717,-6.3791,-6.3822,-6.342,-6.3417,-6.3415,-6.3413,0,0,-6.297,-6.3052,-6.3088,-6.3128,-6.3198,-6.3279,-6.3399,-6.3491,-6.3548,-6.3612,-6.3711,-6.3845,-6.3793,-6.3843,-6.3828,-6.3913,-6.4097,-6.3845,-6.3846,-6.389,-6.4311,-6.4353,-6.4389,-6.4068,-6.4074,-6.4079,-6.4305,0,-6.3193,-6.3405,-6.3396,-6.3593,-6.3691,-6.3638,-6.3742,-6.3795,-6.381,-6.3894,-6.3908,-6.4004,-6.3928,-6.3958,-6.4039,-6.4058,-6.4181,-6.4041,-6.4159,-6.4164,-6.4146,-6.4428,-6.4473,-6.4685,-6.4335,-6.4339,-6.4343,0,-6.3482,-6.3558,-6.3766,-6.3821,-6.3861,-6.3956,-6.4039,-6.412,-6.4178,-6.4183,-6.4239,-6.4211,-6.4331,-6.4228,-6.4392,-6.4297,-6.4344,-6.4361,-6.4369,-6.4379,-6.4265,-6.4446,-6.4752,-6.4784,-6.4389,-6.4385,-6.4382,0,-6.3673,-6.3827,-6.3971,-6.4007,-6.4074,-6.4142,-6.4173,-6.4225,-6.4281,-6.4353,-6.4389,-6.4474,-6.452,-6.4585,-6.458,-6.4506,-6.4746,-6.4643,-6.4752,-6.4752,-6.4805,-6.4802,-6.5123,-6.4836,-6.4836,-6.4835,-6.4834,0,-6.3923,-6.4052,-6.4057,-6.4146,-6.4288,-6.4276,-6.4416,-6.444,-6.4487,-6.4578,-6.4536,-6.4622,-6.461,-6.4696,-6.4693,-6.4828,-6.4849,-6.4855,-6.4853,-6.4859,-6.4859,-6.489,-6.4875,-6.4843,-6.4842,-6.484,-6.4839,0,-6.4161,-6.4169,-6.4323,-6.4375,-6.4391,-6.4493,-6.4536,-6.4619,-6.463,-6.4746,-6.4772,-6.4789,-6.4887,-6.4889,-6.5001,-6.4999,-6.5165,-6.5145,-6.5146,-6.5142,-6.5251,-6.524,-6.5604,-6.565,-6.5333,-6.5336,-6.5339,0,-6.432,-6.4418,-6.4481,-6.454,-6.4575,-6.4671,-6.4728,-6.4718,-6.4779,-6.4853,-6.4927,-6.5022,-6.5097,-6.5257,-6.5278,-6.5363,-6.5346,-6.5467,-6.5358,-6.5361,-6.5347,-6.5341,-6.5351,-6.5488,-6.5492,-6.5495,-6.5497,0,-6.4602,-6.4601,-6.4686,-6.4774,-6.4843,-6.4911,-6.4973,-6.5023,-6.502,-6.5091,-6.5192,-6.5251,-6.5366,-6.5461,-6.5543,-6.5572,-6.5535,-6.5531,-6.5561,-6.5568,-6.5565,-6.5568,-6.5204,-6.5523,-6.552,-6.5518,-6.5517,-6.5516,-6.4805,-6.489,-6.4947,-6.5043,-6.5089,-6.5149,-6.5229,-6.5251,-6.5336,-6.543,-6.5419,-6.5532,-6.5586,-6.5693,-6.573,-6.5816,-6.5774,-6.5817,-6.5827,-6.5838,-6.585,-6.5551,-6.5831,-6.583,-6.583,-6.5829,-6.5828,0,-6.5084,-6.5119,-6.5207,-6.5297,-6.5372,-6.5331,-6.5398,-6.5463,-6.5563,-6.5618,-6.5694,-6.5809,-6.5901,-6.5929,-6.6017,-6.6081,-6.6065,-6.6104,-6.6099,-6.6106,-6.5883,-6.5849,-6.6115,-6.6115,-6.6115,-6.6115,-6.6115,-6.6115,-6.5239,-6.538,-6.5386,-6.5549,-6.5582,-6.5694,-6.5735,-6.5789,-6.5833,-6.5965,-6.6041,-6.606,-6.6103,-6.6194,-6.6275,-6.6281,-6.6315,-6.6361,-6.636,-6.6151,-6.6122,-6.6094,-6.6062,-6.6368,-6.6369,-6.6575,-6.6577,-6.6578]}]]